Simultaneous Nadir Overpasses (SNOs) Predictions

Prediction of SNOs between GOES-17 and METOP-A Satellite Orbit:

Table of predicted SNOs for the next 14.0 days since TLE Epoch: 7/31/2021
Index Date Time (GOES-17) GOES-17 Lat,Lon METOP-A Lat,Lon Distance(km) Time Diff (sec)
1 08/01/2021 05:22:26 -0.00,-137.20 -0.69,-140.19 340.71 80
2 08/02/2021 05:04:27 -0.01,-137.21 0.45,-135.22 226.51 80
3 08/03/2021 17:20:37 0.01,-137.21 0.60,-139.81 296.62 80
4 08/04/2021 17:02:37 0.02,-137.21 -0.48,-134.83 270.20 80
5 08/06/2021 05:21:37 -0.00,-137.19 -0.51,-139.48 260.68 80
6 08/07/2021 04:58:16 0.00,-137.18 0.57,-134.49 305.38 80
7 08/08/2021 17:19:48 -0.00,-137.18 0.42,-139.10 219.08 80
8 08/09/2021 16:59:07 -0.01,-137.16 -0.66,-134.12 346.75 80
9 08/11/2021 05:18:08 0.01,-137.13 -0.33,-138.76 184.77 80
10 08/12/2021 04:57:27 0.01,-137.12 0.75,-133.78 380.78 80
11 08/13/2021 17:13:37 -0.01,-137.11 0.29,-138.37 144.66 80
